Simultaneous Nadir Overpasses (SNOs) Predictions

Prediction of SNOs between AQUA and GOES-15 Satellite Orbit:

Table of predicted SNOs for the next 14.0 days since TLE Epoch: 3/5/2021
Index Date Time (AQUA) AQUA Lat,Lon GOES-15 Lat,Lon Distance(km) Time Diff (sec)
1 03/06/2021 22:04:10 0.36,-127.20 0.14,-128.35 130.61 80
2 03/07/2021 10:25:26 0.73,-132.36 -0.13,-128.32 458.75 80
3 03/08/2021 21:52:00 1.01,-124.25 0.14,-128.37 469.50 80
4 03/09/2021 10:13:15 0.08,-129.40 -0.13,-128.34 120.06 80
5 03/11/2021 10:01:03 -0.53,-126.44 -0.12,-128.36 218.56 80
6 03/11/2021 22:22:27 -0.56,-131.63 0.11,-128.40 367.41 80
7 03/13/2021 22:10:15 0.05,-128.67 0.12,-128.42 28.65 80
8 03/15/2021 21:58:04 0.72,-125.72 0.12,-128.44 309.94 80
9 03/16/2021 10:19:19 0.42,-130.87 -0.11,-128.42 278.39 80
10 03/18/2021 10:07:07 -0.20,-127.91 -0.11,-128.43 59.34 80
